Погода в Сан-Франсиско-де-Кампече

Мексика     19°50′22″N   90°32′01″W
темп.,
°C
ветер,
м/с
пор.,
м/с
влажн.,
%
обл.,
%
осадки,
мм/ч
давл.,
гПа
погр.,
м
1 июля, пт
пт101:00+24в278549 0.0 1015198
04:00+23вюв249477 0.0 1014112
07:00+22вюв159574 0.0 1015160
10:00+31в245792 0.0 10151097
13:00+35ссз254190 0.0 10132489
16:00+30сз466789 0.0 1011408
19:00+28ссз377771 0.2 1011277
22:00+27в268111 0.0 1012135
2 июля, сб
сб201:00+26юв3107566 0.0 1013437
04:00+23вюв2987100 0.0 1012280
07:00+22вюв299660 0.0 1013278
10:00+30вюв355610 0.0 10141154
13:00+36в143363 0.0 10122140
16:00+35ссз454083 0.0 10091730
19:00+28ссз597491 0.0 1010440
22:00+28в27718 0.1 1012225
3 июля, вс
вс301:00+25юв397788 0.1 1013410
04:00+23вюв288845 0.0 1012352
07:00+22в149519 0.0 1014167
10:00+31вюв36545 0.0 10151220
13:00+36в263592 0.0 10132553
16:00+30ссз336391 0.3 1012173
19:00+30с346493 0.4 1012339
22:00+26вюв228810 0.7 101435
4 июля, пн
пн401:00+23юв2485100 0.8 101577
04:00+22вюв2592100 0.0 1014126
07:00+22вюв2695100 0.0 1015169
10:00+29в2454100 0.0 1016821
13:00+34ссв1439100 0.0 10141872
16:00+29ссз5764100 0.0 1012380
19:00+29ссв4868100 0.0 1012431
22:00+28св3106994 0.0 1014415
5 июля, вт
вт501:00+26вюв297571 0.0 1014310
04:00+23вюв268682 0.0 1013171
07:00+22вюв269394 0.0 1014176
10:00+30юв245626 0.0 10151069
13:00+36ссз243865 0.0 10122200
16:00+31сз565585 0.0 1011633
19:00+27ссз378399 0.2 1011338
22:00+24юв3995100 2.8 1012221